Time,TemperatureF,DewpointF,PressureIn,WindDirection,WindDirectionDegrees,WindSpeedMPH,WindSpeedGustMPH,Humidity,HourlyPrecipIn,Conditions,Clouds,dailyrainin,SoftwareType,DateUTC
2013-03-07 00:04:00,35.4,31.7,29.82,NW,315,2.5,2.5,86,0.00,,---,0.00,VWS V14.01,2013-03-07 08:04:00,
2013-03-07 00:09:00,35.2,31.5,29.82,SSW,202,5.8,5.8,86,0.00,,---,0.00,VWS V14.01,2013-03-07 08:09:00,
2013-03-07 00:14:00,35.1,31.3,29.82,WNW,292,1.3,1.3,86,0.00,,---,0.00,VWS V14.01,2013-03-07 08:14:00,
2013-03-07 00:19:00,35.1,31.3,29.82,South,180,0.0,0.0,86,0.00,,---,0.00,VWS V14.01,2013-03-07 08:19:00,
2013-03-07 00:24:00,35.1,31.3,29.82,SSE,158,2.9,2.9,86,0.00,,---,0.00,VWS V14.01,2013-03-07 08:24:00,
2013-03-07 00:29:00,35.1,31.0,29.82,SSE,158,0.0,0.0,85,0.00,,---,0.00,VWS V14.01,2013-03-07 08:29:00,
2013-03-07 00:34:00,35.1,31.0,29.82,SSE,158,0.0,0.0,85,0.00,,---,0.00,VWS V14.01,2013-03-07 08:34:00,
2013-03-07 00:39:00,35.1,31.0,29.82,SSE,158,2.7,2.7,85,0.00,,---,0.00,VWS V14.01,2013-03-07 08:39:00,
2013-03-07 00:44:00,35.1,31.0,29.82,ESE,112,2.2,2.2,85,0.00,,---,0.00,VWS V14.01,2013-03-07 08:44:00,
2013-03-07 00:50:00,35.1,31.3,29.82,SSW,202,1.6,1.6,86,0.04,,---,0.04,VWS V14.01,2013-03-07 08:50:00,
2013-03-07 00:55:00,35.1,31.3,29.82,SSW,202,1.6,1.6,86,0.04,,---,0.04,VWS V14.01,2013-03-07 08:55:00,
2013-03-07 01:00:00,35.1,31.6,29.82,SW,225,0.0,0.0,87,0.04,,---,0.04,VWS V14.01,2013-03-07 09:00:00,
2013-03-07 01:05:00,35.1,31.6,29.82,SSW,202,0.0,0.0,87,0.04,,---,0.04,VWS V14.01,2013-03-07 09:05:00,
2013-03-07 01:10:00,35.1,31.6,29.82,NE,45,1.6,1.6,87,0.04,,---,0.04,VWS V14.01,2013-03-07 09:10:00,
2013-03-07 01:15:00,34.9,31.4,29.85,WNW,292,2.9,2.9,87,0.04,,---,0.04,VWS V14.01,2013-03-07 09:15:00,
2013-03-07 01:20:00,35.1,31.6,29.85,SSE,158,1.3,1.3,87,0.04,,---,0.04,VWS V14.01,2013-03-07 09:20:00,
2013-03-07 01:25:00,35.1,31.9,29.85,SSE,158,2.7,2.7,88,0.04,,---,0.04,VWS V14.01,2013-03-07 09:25:00,
2013-03-07 01:30:00,35.1,31.9,29.85,SSW,202,7.2,7.2,88,0.04,,---,0.04,VWS V14.01,2013-03-07 09:30:00,
2013-03-07 01:35:00,35.1,31.9,29.85,South,180,2.5,2.5,88,0.04,,---,0.04,VWS V14.01,2013-03-07 09:35:00,
2013-03-07 01:40:00,35.1,31.9,29.85,WNW,292,2.0,2.0,88,0.04,,---,0.04,VWS V14.01,2013-03-07 09:40:00,
2013-03-07 01:45:00,35.1,32.2,29.85,SSW,202,2.5,2.5,89,0.04,,---,0.04,VWS V14.01,2013-03-07 09:45:00,
2013-03-07 01:50:00,35.1,32.4,29.85,SSE,158,3.6,3.6,90,0.00,,---,0.04,VWS V14.01,2013-03-07 09:50:00,
2013-03-07 01:56:00,35.1,32.4,29.85,WNW,292,3.1,3.1,90,0.00,,---,0.04,VWS V14.01,2013-03-07 09:56:00,
2013-03-07 02:01:00,35.1,32.7,29.85,SSW,202,2.7,2.7,91,0.00,,---,0.04,VWS V14.01,2013-03-07 10:01:00,
2013-03-07 02:06:00,35.1,32.7,29.85,West,270,2.7,2.7,91,0.04,,---,0.08,VWS V14.01,2013-03-07 10:06:00,
2013-03-07 02:11:00,35.1,32.7,29.85,ENE,68,2.9,2.9,91,0.04,,---,0.08,VWS V14.01,2013-03-07 10:11:00,
2013-03-07 02:16:00,35.1,32.7,29.85,WSW,248,1.3,1.3,91,0.04,,---,0.08,VWS V14.01,2013-03-07 10:16:00,
2013-03-07 02:21:00,35.2,32.9,29.85,WSW,248,2.9,2.9,91,0.04,,---,0.08,VWS V14.01,2013-03-07 10:21:00,
2013-03-07 02:26:00,35.2,32.9,29.85,East,90,2.9,2.9,91,0.04,,---,0.08,VWS V14.01,2013-03-07 10:26:00,
2013-03-07 02:31:00,35.2,32.9,29.85,NW,315,3.4,3.4,91,0.04,,---,0.08,VWS V14.01,2013-03-07 10:31:00,
2013-03-07 02:36:00,35.2,32.9,29.85,West,270,1.6,1.6,91,0.04,,---,0.08,VWS V14.01,2013-03-07 10:36:00,
2013-03-07 02:41:00,35.2,32.9,29.88,SSW,202,4.3,4.3,91,0.04,,---,0.08,VWS V14.01,2013-03-07 10:41:00,
2013-03-07 02:46:00,35.2,32.9,29.88,NNW,338,2.9,2.9,91,0.04,,---,0.08,VWS V14.01,2013-03-07 10:46:00,
2013-03-07 02:51:00,35.2,32.9,29.88,West,270,2.0,2.0,91,0.04,,---,0.08,VWS V14.01,2013-03-07 10:51:00,
2013-03-07 02:56:00,35.4,33.3,29.88,WSW,248,1.1,1.1,92,0.08,,---,0.12,VWS V14.01,2013-03-07 10:56:00,
2013-03-07 03:01:00,35.4,33.3,29.88,WSW,248,4.7,4.7,92,0.08,,---,0.12,VWS V14.01,2013-03-07 11:01:00,
2013-03-07 03:06:00,35.4,33.3,29.88,WNW,292,2.2,2.2,92,0.04,,---,0.12,VWS V14.01,2013-03-07 11:06:00,
2013-03-07 03:12:00,35.4,33.6,29.88,SSW,202,4.0,4.0,93,0.04,,---,0.12,VWS V14.01,2013-03-07 11:12:00,
2013-03-07 03:17:00,35.6,33.5,29.88,SSW,202,4.9,4.9,92,0.04,,---,0.12,VWS V14.01,2013-03-07 11:17:00,
2013-03-07 03:22:00,35.6,33.5,29.88,SW,225,3.4,3.4,92,0.04,,---,0.12,VWS V14.01,2013-03-07 11:22:00,
2013-03-07 03:27:00,35.6,33.5,29.88,NW,315,3.1,3.1,92,0.04,,---,0.12,VWS V14.01,2013-03-07 11:27:00,
2013-03-07 03:32:00,35.6,33.5,29.88,South,180,2.0,2.0,92,0.04,,---,0.12,VWS V14.01,2013-03-07 11:32:00,
2013-03-07 03:37:00,35.6,33.5,29.88,SSW,202,2.9,2.9,92,0.04,,---,0.12,VWS V14.01,2013-03-07 11:37:00,
2013-03-07 03:42:00,35.6,33.5,29.88,West,270,5.4,5.4,92,0.04,,---,0.12,VWS V14.01,2013-03-07 11:42:00,
2013-03-07 03:47:00,35.6,33.5,29.88,SW,225,7.2,7.2,92,0.04,,---,0.12,VWS V14.01,2013-03-07 11:47:00,
2013-03-07 03:52:00,35.6,33.5,29.88,SW,225,2.7,2.7,92,0.04,,---,0.12,VWS V14.01,2013-03-07 11:52:00,
2013-03-07 03:57:00,35.6,33.5,29.88,SW,225,1.6,1.6,92,0.00,,---,0.12,VWS V14.01,2013-03-07 11:57:00,
2013-03-07 04:02:00,35.6,33.5,29.88,SSW,202,3.6,3.6,92,0.00,,---,0.12,VWS V14.01,2013-03-07 12:02:00,
2013-03-07 04:07:00,35.6,33.5,29.88,NNW,338,4.0,4.0,92,0.00,,---,0.12,VWS V14.01,2013-03-07 12:07:00,
2013-03-07 04:12:00,35.6,33.5,29.88,SSW,202,5.6,5.6,92,0.00,,---,0.12,VWS V14.01,2013-03-07 12:12:00,
2013-03-07 04:17:00,35.6,33.5,29.88,SW,225,4.7,4.7,92,0.00,,---,0.12,VWS V14.01,2013-03-07 12:17:00,
2013-03-07 04:22:00,35.4,33.3,29.88,SW,225,5.4,5.4,92,0.00,,---,0.12,VWS V14.01,2013-03-07 12:22:00,
2013-03-07 04:27:00,35.4,33.3,29.88,WSW,248,2.7,2.7,92,0.00,,---,0.12,VWS V14.01,2013-03-07 12:27:00,
2013-03-07 04:32:00,35.4,33.3,29.88,SW,225,3.6,3.6,92,0.00,,---,0.12,VWS V14.01,2013-03-07 12:32:00,
2013-03-07 04:37:00,35.4,33.3,29.88,SSW,202,2.9,2.9,92,0.05,,---,0.17,VWS V14.01,2013-03-07 12:37:00,
2013-03-07 04:42:00,35.4,33.3,29.88,SW,225,2.9,2.9,92,0.05,,---,0.17,VWS V14.01,2013-03-07 12:42:00,
2013-03-07 04:47:00,35.2,33.2,29.88,WSW,248,2.7,2.7,92,0.05,,---,0.17,VWS V14.01,2013-03-07 12:47:00,
2013-03-07 04:52:00,35.1,33.0,29.88,WSW,248,3.6,3.6,92,0.05,,---,0.17,VWS V14.01,2013-03-07 12:52:00,
2013-03-07 04:57:00,34.9,32.8,29.88,SW,225,2.0,2.0,92,0.05,,---,0.17,VWS V14.01,2013-03-07 12:57:00,
2013-03-07 05:02:00,34.9,32.8,29.88,WSW,248,3.8,3.8,92,0.05,,---,0.17,VWS V14.01,2013-03-07 13:02:00,
2013-03-07 05:08:00,34.9,33.1,29.88,SW,225,4.3,4.3,93,0.09,,---,0.21,VWS V14.01,2013-03-07 13:08:00,
2013-03-07 05:13:00,34.9,33.1,29.88,South,180,3.8,3.8,93,0.09,,---,0.21,VWS V14.01,2013-03-07 13:13:00,
2013-03-07 05:18:00,34.9,33.1,29.88,SSE,158,2.2,2.2,93,0.09,,---,0.21,VWS V14.01,2013-03-07 13:18:00,
2013-03-07 05:23:00,34.9,33.3,29.88,SSE,158,5.4,5.4,94,0.09,,---,0.21,VWS V14.01,2013-03-07 13:23:00,
2013-03-07 05:28:00,34.9,33.3,29.88,SW,225,3.4,3.4,94,0.09,,---,0.21,VWS V14.01,2013-03-07 13:28:00,
2013-03-07 05:33:00,34.9,33.3,29.88,WNW,292,2.5,2.5,94,0.09,,---,0.21,VWS V14.01,2013-03-07 13:33:00,
2013-03-07 05:38:00,34.9,33.3,29.88,WSW,248,4.3,4.3,94,0.09,,---,0.21,VWS V14.01,2013-03-07 13:38:00,
2013-03-07 05:43:00,34.9,33.3,29.88,WSW,248,0.0,0.0,94,0.04,,---,0.21,VWS V14.01,2013-03-07 13:43:00,
2013-03-07 05:48:00,34.9,33.1,29.88,SW,225,6.3,6.3,93,0.04,,---,0.21,VWS V14.01,2013-03-07 13:48:00,
2013-03-07 05:53:00,34.9,33.3,29.88,WNW,292,7.2,7.2,94,0.04,,---,0.21,VWS V14.01,2013-03-07 13:53:00,
2013-03-07 05:58:00,34.9,33.3,29.88,North,0,5.4,5.4,94,0.04,,---,0.21,VWS V14.01,2013-03-07 13:58:00,
2013-03-07 06:03:00,35.1,33.5,29.88,West,270,1.3,1.3,94,0.04,,---,0.21,VWS V14.01,2013-03-07 14:03:00,
2013-03-07 06:08:00,34.9,33.3,29.88,SSW,202,2.9,2.9,94,0.04,,---,0.25,VWS V14.01,2013-03-07 14:08:00,
2013-03-07 06:14:00,34.9,33.3,29.91,NW,315,3.8,3.8,94,0.04,,---,0.25,VWS V14.01,2013-03-07 14:14:00,
2013-03-07 06:19:00,34.9,33.3,29.91,WSW,248,2.7,2.7,94,0.04,,---,0.25,VWS V14.01,2013-03-07 14:19:00,
2013-03-07 06:24:00,34.9,33.3,29.91,SW,225,6.0,6.0,94,0.04,,---,0.25,VWS V14.01,2013-03-07 14:24:00,
2013-03-07 06:29:00,34.9,33.3,29.91,SSW,202,2.7,2.7,94,0.04,,---,0.25,VWS V14.01,2013-03-07 14:29:00,
2013-03-07 06:34:00,34.9,33.3,29.91,NNW,338,1.6,1.6,94,0.04,,---,0.25,VWS V14.01,2013-03-07 14:34:00,
2013-03-07 06:39:00,34.9,33.3,29.91,SW,225,3.4,3.4,94,0.08,,---,0.29,VWS V14.01,2013-03-07 14:39:00,
2013-03-07 06:44:00,35.1,33.8,29.91,WSW,248,5.8,5.8,95,0.08,,---,0.29,VWS V14.01,2013-03-07 14:44:00,
2013-03-07 06:49:00,35.1,33.8,29.91,SW,225,2.0,2.0,95,0.08,,---,0.29,VWS V14.01,2013-03-07 14:49:00,
2013-03-07 06:54:00,35.1,33.8,29.91,SSW,202,3.6,3.6,95,0.08,,---,0.29,VWS V14.01,2013-03-07 14:54:00,
2013-03-07 06:59:00,35.1,33.8,29.91,SSW,202,3.6,3.6,95,0.08,,---,0.29,VWS V14.01,2013-03-07 14:59:00,
2013-03-07 07:04:00,35.2,34.0,29.91,SW,225,1.6,1.6,95,0.08,,---,0.29,VWS V14.01,2013-03-07 15:04:00,
2013-03-07 07:09:00,35.4,34.1,29.91,ESE,112,2.2,2.2,95,0.04,,---,0.29,VWS V14.01,2013-03-07 15:09:00,
2013-03-07 07:14:00,35.4,34.1,29.94,WSW,248,4.3,4.3,95,0.04,,---,0.29,VWS V14.01,2013-03-07 15:14:00,
2013-03-07 07:19:00,35.6,34.0,29.94,SW,225,3.1,3.1,94,0.04,,---,0.29,VWS V14.01,2013-03-07 15:19:00,
2013-03-07 07:24:00,35.6,34.0,29.94,WSW,248,2.9,2.9,94,0.04,,---,0.29,VWS V14.01,2013-03-07 15:24:00,
2013-03-07 07:29:00,35.8,34.0,29.94,SSW,202,4.3,4.3,93,0.04,,---,0.29,VWS V14.01,2013-03-07 15:29:00,
2013-03-07 07:34:00,36.0,34.1,29.94,SSW,202,4.3,4.3,93,0.04,,---,0.29,VWS V14.01,2013-03-07 15:34:00,
2013-03-07 07:40:00,36.1,34.0,29.94,WSW,248,2.5,2.5,92,0.04,,---,0.29,VWS V14.01,2013-03-07 15:40:00,
2013-03-07 07:45:00,36.1,33.8,29.94,SW,225,2.7,2.7,91,0.00,,---,0.29,VWS V14.01,2013-03-07 15:45:00,
2013-03-07 07:50:00,36.3,34.0,29.94,SW,225,2.9,2.9,91,0.00,,---,0.29,VWS V14.01,2013-03-07 15:50:00,
2013-03-07 07:55:00,36.3,33.7,29.94,West,270,3.1,3.1,90,0.00,,---,0.29,VWS V14.01,2013-03-07 15:55:00,
2013-03-07 08:00:00,36.3,33.7,29.94,SE,135,2.7,2.7,90,0.00,,---,0.29,VWS V14.01,2013-03-07 16:00:00,
2013-03-07 08:05:00,36.5,33.8,29.94,NNW,338,1.3,1.3,90,0.00,,---,0.29,VWS V14.01,2013-03-07 16:05:00,
2013-03-07 08:10:00,36.7,33.8,29.94,South,180,2.2,2.2,89,0.00,,---,0.29,VWS V14.01,2013-03-07 16:10:00,
2013-03-07 08:15:00,36.9,33.9,29.94,WSW,248,5.4,5.4,89,0.00,,---,0.29,VWS V14.01,2013-03-07 16:15:00,
2013-03-07 08:20:00,36.9,33.9,29.94,SW,225,4.3,4.3,89,0.00,,---,0.29,VWS V14.01,2013-03-07 16:20:00,
2013-03-07 08:25:00,37.0,33.8,29.94,SW,225,2.7,2.7,88,0.00,,---,0.29,VWS V14.01,2013-03-07 16:25:00,
2013-03-07 08:30:00,37.4,34.2,29.94,SSW,202,3.6,3.6,88,0.00,,---,0.29,VWS V14.01,2013-03-07 16:30:00,
2013-03-07 08:35:00,37.8,34.5,29.94,SW,225,2.9,2.9,88,0.00,,---,0.29,VWS V14.01,2013-03-07 16:35:00,
2013-03-07 08:40:00,37.8,34.2,29.94,WSW,248,2.7,2.7,87,0.00,,---,0.29,VWS V14.01,2013-03-07 16:40:00,
2013-03-07 08:45:00,37.9,33.8,29.94,NE,45,1.3,1.3,85,0.00,,---,0.29,VWS V14.01,2013-03-07 16:45:00,
2013-03-07 08:50:00,37.9,33.8,29.94,SSW,202,2.0,2.0,85,0.00,,---,0.29,VWS V14.01,2013-03-07 16:50:00,
2013-03-07 08:55:00,38.1,33.7,29.94,SW,225,2.0,2.0,84,0.00,,---,0.29,VWS V14.01,2013-03-07 16:55:00,
2013-03-07 09:00:00,38.1,33.4,29.94,WSW,248,2.0,2.0,83,0.00,,---,0.29,VWS V14.01,2013-03-07 17:00:00,
2013-03-07 09:06:00,38.1,32.5,29.94,SSW,202,3.6,3.6,80,0.00,,---,0.29,VWS V14.01,2013-03-07 17:06:00,
2013-03-07 09:11:00,38.1,32.5,29.94,South,180,3.8,3.8,80,0.00,,---,0.29,VWS V14.01,2013-03-07 17:11:00,
2013-03-07 10:11:00,38.5,32.5,29.97,West,270,0.0,0.0,79,0.00,,---,0.29,VWS V14.01,2013-03-07 18:11:00,
2013-03-07 10:17:00,42.6,33.5,29.97,SE,135,0.0,0.0,70,0.00,,---,0.29,VWS V14.01,2013-03-07 18:17:00,
2013-03-07 10:22:00,42.4,32.6,29.97,NNW,338,0.0,0.0,68,0.00,,---,0.29,VWS V14.01,2013-03-07 18:22:00,
2013-03-07 10:27:00,42.3,32.1,29.97,SSE,158,6.0,6.0,67,0.00,,---,0.29,VWS V14.01,2013-03-07 18:27:00,
2013-03-07 10:32:00,41.7,30.5,29.97,SW,225,4.3,4.3,64,0.00,,---,0.29,VWS V14.01,2013-03-07 18:32:00,
2013-03-07 10:37:00,41.7,31.6,29.97,West,270,2.5,2.5,67,0.00,,---,0.29,VWS V14.01,2013-03-07 18:37:00,
2013-03-07 10:42:00,42.4,32.3,29.97,SSW,202,3.4,3.4,67,0.00,,---,0.29,VWS V14.01,2013-03-07 18:42:00,
2013-03-07 10:47:00,43.7,33.1,29.97,West,270,2.5,2.5,66,0.00,,---,0.29,VWS V14.01,2013-03-07 18:47:00,
2013-03-07 10:52:00,44.1,31.5,29.97,SSW,202,1.6,1.6,61,0.00,,---,0.29,VWS V14.01,2013-03-07 18:52:00,
2013-03-07 10:57:00,44.6,32.4,30.00,WSW,248,5.4,5.4,62,0.00,,---,0.29,VWS V14.01,2013-03-07 18:57:00,
2013-03-07 11:03:00,45.1,32.5,30.00,SSW,202,2.0,2.0,61,0.00,,---,0.29,VWS V14.01,2013-03-07 19:03:00,
2013-03-07 11:08:00,45.5,32.8,30.00,SW,225,1.6,1.6,61,0.00,,---,0.29,VWS V14.01,2013-03-07 19:08:00,
2013-03-07 11:13:00,45.5,31.2,30.00,SSW,202,1.3,1.3,57,0.00,,---,0.29,VWS V14.01,2013-03-07 19:13:00,
2013-03-07 11:18:00,45.5,30.7,30.00,NNW,338,1.6,1.6,56,0.00,,---,0.29,VWS V14.01,2013-03-07 19:18:00,
2013-03-07 11:23:00,46.4,32.4,30.00,West,270,4.9,4.9,58,0.00,,---,0.29,VWS V14.01,2013-03-07 19:23:00,
2013-03-07 11:29:00,49.1,30.8,29.97,SW,225,3.8,3.8,49,0.00,,---,0.29,VWS V14.01,2013-03-07 19:29:00,
2013-03-07 11:34:00,49.6,31.8,29.97,NNW,338,3.6,3.6,50,0.00,,---,0.29,VWS V14.01,2013-03-07 19:34:00,
2013-03-07 11:39:00,50.2,30.8,29.97,East,90,3.1,3.1,47,0.00,,---,0.29,VWS V14.01,2013-03-07 19:39:00,
2013-03-07 11:44:00,50.2,30.8,30.00,SE,135,2.7,2.7,47,0.00,,---,0.29,VWS V14.01,2013-03-07 19:44:00,
2013-03-07 11:49:00,49.5,30.1,30.00,SSW,202,6.0,6.0,47,0.00,,---,0.29,VWS V14.01,2013-03-07 19:49:00,
2013-03-07 11:54:00,49.8,29.9,30.00,South,180,1.6,1.6,46,0.00,,---,0.29,VWS V14.01,2013-03-07 19:54:00,
2013-03-07 11:59:00,49.6,30.2,29.97,ESE,112,4.0,4.0,47,0.00,,---,0.29,VWS V14.01,2013-03-07 19:59:00,
2013-03-07 12:04:00,50.9,30.9,29.97,WSW,248,3.1,3.1,46,0.00,,---,0.29,VWS V14.01,2013-03-07 20:04:00,
2013-03-07 12:09:00,51.3,30.7,29.97,WSW,248,8.1,8.1,45,0.00,,---,0.29,VWS V14.01,2013-03-07 20:09:00,
2013-03-07 12:14:00,50.9,30.3,30.00,SW,225,4.0,4.0,45,0.00,,---,0.29,VWS V14.01,2013-03-07 20:14:00,
2013-03-07 12:19:00,51.8,30.0,30.00,WSW,248,3.1,3.1,43,0.00,,---,0.29,VWS V14.01,2013-03-07 20:19:00,
2013-03-07 12:24:00,51.3,29.5,30.00,SW,225,2.9,2.9,43,0.00,,---,0.29,VWS V14.01,2013-03-07 20:24:00,
2013-03-07 12:29:00,51.4,29.1,30.00,SW,225,4.9,4.9,42,0.00,,---,0.29,VWS V14.01,2013-03-07 20:29:00,
2013-03-07 12:34:00,51.3,29.0,30.00,WSW,248,4.7,4.7,42,0.00,,---,0.29,VWS V14.01,2013-03-07 20:34:00,
2013-03-07 12:40:00,49.8,27.7,30.00,SW,225,6.3,6.3,42,0.00,,---,0.29,VWS V14.01,2013-03-07 20:40:00,
2013-03-07 12:45:00,50.2,27.4,29.97,NW,315,2.9,2.9,41,0.00,,---,0.29,VWS V14.01,2013-03-07 20:45:00,
2013-03-07 12:50:00,50.2,27.4,29.97,West,270,3.8,3.8,41,0.00,,---,0.29,VWS V14.01,2013-03-07 20:50:00,
2013-03-07 12:55:00,50.2,26.8,29.97,WSW,248,3.6,3.6,40,0.00,,---,0.29,VWS V14.01,2013-03-07 20:55:00,
2013-03-07 13:00:00,49.6,27.5,29.97,SSE,158,4.7,4.7,42,0.00,,---,0.29,VWS V14.01,2013-03-07 21:00:00,
2013-03-07 13:05:00,49.3,27.2,29.97,SSE,158,4.7,4.7,42,0.00,,---,0.29,VWS V14.01,2013-03-07 21:05:00,
2013-03-07 13:10:00,49.5,27.9,29.97,WSW,248,6.3,6.3,43,0.00,,---,0.29,VWS V14.01,2013-03-07 21:10:00,
2013-03-07 13:15:00,50.9,28.6,29.97,NE,45,4.7,4.7,42,0.00,,---,0.29,VWS V14.01,2013-03-07 21:15:00,
2013-03-07 13:20:00,51.3,27.2,29.97,WSW,248,3.1,3.1,39,0.00,,---,0.29,VWS V14.01,2013-03-07 21:20:00,
2013-03-07 13:25:00,50.5,26.5,29.97,SW,225,2.2,2.2,39,0.00,,---,0.29,VWS V14.01,2013-03-07 21:25:00,
2013-03-07 13:30:00,50.5,26.5,29.97,NW,315,2.7,2.7,39,0.00,,---,0.29,VWS V14.01,2013-03-07 21:30:00,
2013-03-07 13:35:00,50.2,26.2,29.97,WNW,292,1.6,1.6,39,0.00,,---,0.29,VWS V14.01,2013-03-07 21:35:00,
2013-03-07 13:41:00,50.2,26.8,29.97,SSE,158,3.8,3.8,40,0.00,,---,0.29,VWS V14.01,2013-03-07 21:41:00,
2013-03-07 13:46:00,49.1,26.4,29.94,ESE,112,2.9,2.9,41,0.00,,---,0.29,VWS V14.01,2013-03-07 21:46:00,
2013-03-07 13:51:00,48.7,26.1,29.94,SSE,158,3.1,3.1,41,0.00,,---,0.29,VWS V14.01,2013-03-07 21:51:00,
2013-03-07 13:56:00,48.6,26.0,29.97,SSE,158,5.6,5.6,41,0.00,,---,0.29,VWS V14.01,2013-03-07 21:56:00,
2013-03-07 14:01:00,48.4,26.4,29.97,SSE,158,4.0,4.0,42,0.00,,---,0.29,VWS V14.01,2013-03-07 22:01:00,
2013-03-07 14:06:00,48.4,26.4,29.97,SE,135,2.0,2.0,42,0.00,,---,0.29,VWS V14.01,2013-03-07 22:06:00,
2013-03-07 14:11:00,48.7,26.7,29.97,SSE,158,2.5,2.5,42,0.00,,---,0.29,VWS V14.01,2013-03-07 22:11:00,
2013-03-07 14:16:00,48.7,26.7,29.97,SW,225,2.9,2.9,42,0.00,,---,0.29,VWS V14.01,2013-03-07 22:16:00,
2013-03-07 14:21:00,48.6,25.4,29.97,South,180,3.8,3.8,40,0.00,,---,0.29,VWS V14.01,2013-03-07 22:21:00,
2013-03-07 14:26:00,49.1,27.0,29.97,South,180,2.0,2.0,42,0.00,,---,0.29,VWS V14.01,2013-03-07 22:26:00,
2013-03-07 14:31:00,49.1,26.4,29.97,SSW,202,1.3,1.3,41,0.00,,---,0.29,VWS V14.01,2013-03-07 22:31:00,
2013-03-07 14:36:00,49.1,26.4,29.97,South,180,8.7,8.7,41,0.00,,---,0.29,VWS V14.01,2013-03-07 22:36:00,
2013-03-07 14:41:00,49.1,26.4,29.97,SW,225,2.7,2.7,41,0.00,,---,0.29,VWS V14.01,2013-03-07 22:41:00,
2013-03-07 14:46:00,49.6,26.9,29.97,SSE,158,0.0,0.0,41,0.00,,---,0.29,VWS V14.01,2013-03-07 22:46:00,
2013-03-07 14:52:00,49.5,26.2,29.97,SSE,158,3.1,3.1,40,0.00,,---,0.29,VWS V14.01,2013-03-07 22:52:00,
2013-03-07 14:57:00,49.1,25.8,29.97,SSE,158,3.4,3.4,40,0.00,,---,0.29,VWS V14.01,2013-03-07 22:57:00,
2013-03-07 15:02:00,49.1,25.8,29.97,SW,225,0.9,0.9,40,0.00,,---,0.29,VWS V14.01,2013-03-07 23:02:00,
2013-03-07 15:07:00,48.7,25.5,29.97,South,180,2.9,2.9,40,0.00,,---,0.29,VWS V14.01,2013-03-07 23:07:00,
2013-03-07 15:12:00,48.6,26.0,29.97,WSW,248,0.0,0.0,41,0.00,,---,0.29,VWS V14.01,2013-03-07 23:12:00,
2013-03-07 15:17:00,48.2,25.0,29.97,West,270,3.8,3.8,40,0.00,,---,0.29,VWS V14.01,2013-03-07 23:17:00,
2013-03-07 15:22:00,47.7,24.5,29.97,WSW,248,1.6,1.6,40,0.00,,---,0.29,VWS V14.01,2013-03-07 23:22:00,
2013-03-07 15:27:00,47.5,24.4,30.00,West,270,1.6,1.6,40,0.00,,---,0.29,VWS V14.01,2013-03-07 23:27:00,
2013-03-07 15:32:00,47.3,24.2,30.00,West,270,0.0,0.0,40,0.00,,---,0.29,VWS V14.01,2013-03-07 23:32:00,
2013-03-07 15:37:00,46.9,24.5,30.00,WNW,292,2.2,2.2,41,0.00,,---,0.29,VWS V14.01,2013-03-07 23:37:00,
2013-03-07 15:42:00,46.8,24.3,29.97,West,270,2.5,2.5,41,0.00,,---,0.29,VWS V14.01,2013-03-07 23:42:00,
2013-03-07 15:47:00,46.8,24.3,29.97,WNW,292,3.1,3.1,41,0.00,,---,0.29,VWS V14.01,2013-03-07 23:47:00,
2013-03-07 15:53:00,46.6,24.2,29.97,WNW,292,2.0,2.0,41,0.00,,---,0.29,VWS V14.01,2013-03-07 23:53:00,
2013-03-07 15:58:00,46.2,27.6,29.97,NNW,338,4.7,4.7,48,0.00,,---,0.29,VWS V14.01,2013-03-07 23:58:00,
2013-03-07 16:03:00,46.0,27.5,29.97,NW,315,2.5,2.5,48,0.00,,---,0.29,VWS V14.01,2013-03-08 00:03:00,
2013-03-07 16:08:00,46.0,27.5,29.97,NW,315,0.0,0.0,48,0.00,,---,0.29,VWS V14.01,2013-03-08 00:08:00,
2013-03-07 16:13:00,46.0,27.5,29.97,WNW,292,1.3,1.3,48,0.00,,---,0.29,VWS V14.01,2013-03-08 00:13:00,
2013-03-07 16:18:00,45.9,28.3,29.97,North,0,0.0,0.0,50,0.00,,---,0.29,VWS V14.01,2013-03-08 00:18:00,
2013-03-07 16:23:00,45.7,29.1,29.97,NE,45,4.0,4.0,52,0.00,,---,0.29,VWS V14.01,2013-03-08 00:23:00,
2013-03-07 16:28:00,45.3,28.8,29.97,East,90,2.2,2.2,52,0.00,,---,0.29,VWS V14.01,2013-03-08 00:28:00,
2013-03-07 16:33:00,45.5,29.4,29.97,ENE,68,3.4,3.4,53,0.00,,---,0.29,VWS V14.01,2013-03-08 00:33:00,
2013-03-07 16:38:00,45.5,29.4,29.97,East,90,0.0,0.0,53,0.00,,---,0.29,VWS V14.01,2013-03-08 00:38:00,
2013-03-07 16:43:00,45.7,29.5,29.97,ENE,68,3.6,3.6,53,0.00,,---,0.29,VWS V14.01,2013-03-08 00:43:00,
2013-03-07 16:48:00,46.4,31.1,29.97,ENE,68,4.0,4.0,55,0.00,,---,0.29,VWS V14.01,2013-03-08 00:48:00,
2013-03-07 16:54:00,46.6,30.4,29.97,East,90,1.3,1.3,53,0.00,,---,0.29,VWS V14.01,2013-03-08 00:54:00,
2013-03-07 16:59:00,46.6,29.9,29.97,ESE,112,2.0,2.0,52,0.00,,---,0.29,VWS V14.01,2013-03-08 00:59:00,
2013-03-07 17:04:00,46.2,29.6,29.97,NNE,22,0.0,0.0,52,0.00,,---,0.29,VWS V14.01,2013-03-08 01:04:00,
2013-03-07 17:09:00,45.7,29.1,29.97,SSE,158,1.3,1.3,52,0.00,,---,0.29,VWS V14.01,2013-03-08 01:09:00,
2013-03-07 17:14:00,45.1,28.6,29.97,SSE,158,1.6,1.6,52,0.00,,---,0.29,VWS V14.01,2013-03-08 01:14:00,
2013-03-07 17:20:00,44.1,28.0,29.97,SSE,158,0.0,0.0,53,0.00,,---,0.29,VWS V14.01,2013-03-08 01:20:00,
2013-03-07 17:25:00,43.3,27.8,29.97,SSE,158,0.0,0.0,54,0.00,,---,0.29,VWS V14.01,2013-03-08 01:25:00,
2013-03-07 17:30:00,42.6,27.6,29.97,SSE,158,0.0,0.0,55,0.00,,---,0.29,VWS V14.01,2013-03-08 01:30:00,
2013-03-07 17:35:00,42.1,27.5,29.97,SSE,158,0.0,0.0,56,0.00,,---,0.29,VWS V14.01,2013-03-08 01:35:00,
2013-03-07 17:40:00,41.4,27.3,29.97,SSE,158,0.0,0.0,57,0.00,,---,0.29,VWS V14.01,2013-03-08 01:40:00,
2013-03-07 17:45:00,40.5,27.3,29.97,SSE,158,0.0,0.0,59,0.00,,---,0.29,VWS V14.01,2013-03-08 01:45:00,
2013-03-07 17:50:00,40.5,27.7,29.97,South,180,1.6,1.6,60,0.00,,---,0.29,VWS V14.01,2013-03-08 01:50:00,
2013-03-07 17:55:00,40.1,30.0,29.97,SSW,202,2.9,2.9,67,0.00,,---,0.29,VWS V14.01,2013-03-08 01:55:00,
2013-03-07 18:00:00,39.7,31.1,29.97,South,180,4.3,4.3,71,0.00,,---,0.29,VWS V14.01,2013-03-08 02:00:00,
2013-03-07 18:05:00,39.4,31.1,29.97,SSE,158,3.4,3.4,72,0.00,,---,0.29,VWS V14.01,2013-03-08 02:05:00,
2013-03-07 18:10:00,38.8,30.6,29.97,SSW,202,1.3,1.3,72,0.00,,---,0.29,VWS V14.01,2013-03-08 02:10:00,
2013-03-07 18:15:00,38.3,29.4,30.00,SSW,202,0.0,0.0,70,0.00,,---,0.29,VWS V14.01,2013-03-08 02:15:00,
2013-03-07 18:20:00,38.1,29.2,30.00,South,180,0.0,0.0,70,0.00,,---,0.29,VWS V14.01,2013-03-08 02:20:00,
2013-03-07 18:26:00,37.8,30.2,30.00,South,180,2.7,2.7,74,0.00,,---,0.29,VWS V14.01,2013-03-08 02:26:00,
2013-03-07 18:31:00,37.6,30.1,30.00,South,180,3.1,3.1,74,0.00,,---,0.29,VWS V14.01,2013-03-08 02:31:00,
2013-03-07 18:36:00,37.6,30.1,30.00,South,180,1.6,1.6,74,0.00,,---,0.29,VWS V14.01,2013-03-08 02:36:00,
2013-03-07 18:41:00,37.6,30.7,30.00,South,180,2.2,2.2,76,0.00,,---,0.29,VWS V14.01,2013-03-08 02:41:00,
2013-03-07 18:46:00,37.4,30.2,30.00,South,180,2.5,2.5,75,0.00,,---,0.29,VWS V14.01,2013-03-08 02:46:00,
2013-03-07 18:51:00,37.0,29.9,30.00,SSW,202,0.0,0.0,75,0.00,,---,0.29,VWS V14.01,2013-03-08 02:51:00,
2013-03-07 18:57:00,36.7,29.2,30.00,SSW,202,0.0,0.0,74,0.00,,---,0.29,VWS V14.01,2013-03-08 02:57:00,
2013-03-07 19:02:00,36.3,28.8,30.00,SSW,202,2.2,2.2,74,0.00,,---,0.29,VWS V14.01,2013-03-08 03:02:00,
2013-03-07 19:07:00,36.5,30.0,30.00,SSE,158,2.0,2.0,77,0.00,,---,0.29,VWS V14.01,2013-03-08 03:07:00,
2013-03-07 19:12:00,36.5,30.6,29.97,SSE,158,1.6,1.6,79,0.00,,---,0.29,VWS V14.01,2013-03-08 03:12:00,
2013-03-07 19:17:00,36.7,31.1,29.97,SSE,158,1.6,1.6,80,0.00,,---,0.29,VWS V14.01,2013-03-08 03:17:00,
2013-03-07 19:22:00,36.3,30.4,29.97,SSE,158,0.0,0.0,79,0.00,,---,0.29,VWS V14.01,2013-03-08 03:22:00,
2013-03-07 19:27:00,36.0,29.8,30.00,SE,135,0.0,0.0,78,0.00,,---,0.29,VWS V14.01,2013-03-08 03:27:00,
2013-03-07 19:32:00,35.4,29.2,30.00,SE,135,0.0,0.0,78,0.00,,---,0.29,VWS V14.01,2013-03-08 03:32:00,
2013-03-07 19:37:00,35.1,29.2,30.00,SE,135,2.0,2.0,79,0.00,,---,0.29,VWS V14.01,2013-03-08 03:37:00,
2013-03-07 19:42:00,35.4,30.2,30.00,SSE,158,2.7,2.7,81,0.00,,---,0.29,VWS V14.01,2013-03-08 03:42:00,
2013-03-07 19:47:00,35.6,30.7,30.00,SSW,202,1.6,1.6,82,0.00,,---,0.29,VWS V14.01,2013-03-08 03:47:00,
2013-03-07 19:52:00,35.2,30.3,30.00,SW,225,0.0,0.0,82,0.00,,---,0.29,VWS V14.01,2013-03-08 03:52:00,
2013-03-07 19:57:00,34.9,29.6,30.00,South,180,2.0,2.0,81,0.00,,---,0.29,VWS V14.01,2013-03-08 03:57:00,
2013-03-07 20:03:00,35.1,30.1,30.00,SSE,158,0.0,0.0,82,0.00,,---,0.29,VWS V14.01,2013-03-08 04:03:00,
2013-03-07 20:08:00,34.9,30.2,30.00,SSE,158,4.0,4.0,83,0.00,,---,0.29,VWS V14.01,2013-03-08 04:08:00,
2013-03-07 20:13:00,34.9,30.8,30.00,SE,135,2.7,2.7,85,0.00,,---,0.29,VWS V14.01,2013-03-08 04:13:00,
2013-03-07 20:18:00,35.2,31.5,30.00,SW,225,1.1,1.1,86,0.00,,---,0.29,VWS V14.01,2013-03-08 04:18:00,
2013-03-07 20:23:00,35.2,31.5,30.00,SE,135,4.3,4.3,86,0.00,,---,0.29,VWS V14.01,2013-03-08 04:23:00,
2013-03-07 20:28:00,35.4,31.9,30.00,South,180,3.1,3.1,87,0.00,,---,0.29,VWS V14.01,2013-03-08 04:28:00,
2013-03-07 20:33:00,35.2,31.8,30.00,SW,225,1.1,1.1,87,0.00,,---,0.29,VWS V14.01,2013-03-08 04:33:00,
2013-03-07 20:38:00,34.9,31.1,30.00,West,270,0.0,0.0,86,0.00,,---,0.29,VWS V14.01,2013-03-08 04:38:00,
2013-03-07 20:43:00,34.5,30.5,30.03,West,270,0.0,0.0,85,0.00,,---,0.29,VWS V14.01,2013-03-08 04:43:00,
2013-03-07 20:49:00,34.5,30.5,30.03,WSW,248,0.0,0.0,85,0.00,,---,0.29,VWS V14.01,2013-03-08 04:49:00,
2013-03-07 20:54:00,34.0,29.7,30.03,WSW,248,0.0,0.0,84,0.00,,---,0.29,VWS V14.01,2013-03-08 04:54:00,
2013-03-07 20:59:00,33.8,29.8,30.03,ESE,112,0.0,0.0,85,0.00,,---,0.29,VWS V14.01,2013-03-08 04:59:00,
2013-03-07 21:00:00,33.8,29.8,30.03,ESE,112,0.0,0.0,85,0.00,,---,0.29,VWS V14.01,2013-03-08 05:00:00,
2013-03-07 21:01:00,33.8,29.8,30.03,ESE,112,0.0,0.0,85,0.00,,---,0.29,VWS V14.01,2013-03-08 05:01:00,
2013-03-07 21:02:00,33.6,29.6,30.03,ESE,112,2.2,2.2,85,0.00,,---,0.29,VWS V14.01,2013-03-08 05:02:00,
2013-03-07 21:07:00,33.6,29.9,30.03,ESE,112,0.0,0.0,86,0.00,,---,0.29,VWS V14.01,2013-03-08 05:07:00,
2013-03-07 21:12:00,33.3,29.5,30.03,ESE,112,0.0,0.0,86,0.00,,---,0.29,VWS V14.01,2013-03-08 05:12:00,
2013-03-07 21:17:00,33.3,29.5,30.03,ESE,112,1.6,1.6,86,0.00,,---,0.29,VWS V14.01,2013-03-08 05:17:00,
2013-03-07 21:22:00,33.3,30.1,30.03,East,90,0.0,0.0,88,0.00,,---,0.29,VWS V14.01,2013-03-08 05:22:00,
2013-03-07 21:27:00,33.3,29.8,30.03,NE,45,2.0,2.0,87,0.00,,---,0.29,VWS V14.01,2013-03-08 05:27:00,
2013-03-07 21:33:00,33.4,30.5,30.03,ENE,68,1.3,1.3,89,0.00,,---,0.29,VWS V14.01,2013-03-08 05:33:00,
2013-03-07 21:38:00,33.1,29.9,30.03,NE,45,0.0,0.0,88,0.00,,---,0.29,VWS V14.01,2013-03-08 05:38:00,
2013-03-07 21:43:00,33.1,29.9,30.03,ENE,68,0.0,0.0,88,0.00,,---,0.29,VWS V14.01,2013-03-08 05:43:00,
2013-03-07 21:48:00,33.3,30.4,30.03,East,90,1.6,1.6,89,0.00,,---,0.29,VWS V14.01,2013-03-08 05:48:00,
2013-03-07 21:53:00,33.3,30.4,30.03,SE,135,1.1,1.1,89,0.00,,---,0.29,VWS V14.01,2013-03-08 05:53:00,
2013-03-07 21:58:00,33.3,30.4,30.03,WSW,248,0.0,0.0,89,0.00,,---,0.29,VWS V14.01,2013-03-08 05:58:00,
2013-03-07 22:03:00,33.4,30.5,30.03,SE,135,1.6,1.6,89,0.00,,---,0.29,VWS V14.01,2013-03-08 06:03:00,
2013-03-07 22:08:00,33.3,30.1,30.03,SE,135,0.0,0.0,88,0.00,,---,0.29,VWS V14.01,2013-03-08 06:08:00,
2013-03-07 22:13:00,32.9,29.7,30.03,ENE,68,0.0,0.0,88,0.00,,---,0.29,VWS V14.01,2013-03-08 06:13:00,
2013-03-07 22:18:00,32.7,29.6,30.03,ESE,112,0.0,0.0,88,0.00,,---,0.29,VWS V14.01,2013-03-08 06:18:00,
2013-03-07 22:23:00,32.4,29.2,30.03,ESE,112,0.0,0.0,88,0.00,,---,0.29,VWS V14.01,2013-03-08 06:23:00,
2013-03-07 22:29:00,32.2,29.0,30.06,NNW,338,0.0,0.0,88,0.00,,---,0.29,VWS V14.01,2013-03-08 06:29:00,
2013-03-07 22:34:00,32.2,29.0,30.06,East,90,0.0,0.0,88,0.00,,---,0.29,VWS V14.01,2013-03-08 06:34:00,
2013-03-07 22:39:00,32.2,29.3,30.06,East,90,0.0,0.0,89,0.00,,---,0.29,VWS V14.01,2013-03-08 06:39:00,
2013-03-07 22:44:00,32.0,28.9,30.03,NNE,22,0.0,0.0,88,0.00,,---,0.29,VWS V14.01,2013-03-08 06:44:00,
2013-03-07 22:49:00,32.0,28.9,30.03,West,270,0.0,0.0,88,0.00,,---,0.29,VWS V14.01,2013-03-08 06:49:00,
2013-03-07 22:54:00,32.2,29.0,30.03,SSE,158,1.6,1.6,88,0.00,,---,0.29,VWS V14.01,2013-03-08 06:54:00,
2013-03-07 22:59:00,32.2,29.0,30.06,SE,135,0.0,0.0,88,0.00,,---,0.29,VWS V14.01,2013-03-08 06:59:00,
2013-03-07 23:04:00,32.0,28.9,30.06,WSW,248,0.0,0.0,88,0.00,,---,0.29,VWS V14.01,2013-03-08 07:04:00,
2013-03-07 23:09:00,31.8,28.7,30.06,WNW,292,0.0,0.0,88,0.00,,---,0.29,VWS V14.01,2013-03-08 07:09:00,
2013-03-07 23:14:00,31.8,28.7,30.06,WSW,248,0.0,0.0,88,0.00,,---,0.29,VWS V14.01,2013-03-08 07:14:00,
2013-03-07 23:19:00,31.8,28.7,30.06,WSW,248,0.0,0.0,88,0.00,,---,0.29,VWS V14.01,2013-03-08 07:19:00,
2013-03-07 23:25:00,31.8,29.0,30.06,WSW,248,0.0,0.0,89,0.00,,---,0.29,VWS V14.01,2013-03-08 07:25:00,
2013-03-07 23:30:00,32.2,29.3,30.06,SW,225,1.6,1.6,89,0.00,,---,0.29,VWS V14.01,2013-03-08 07:30:00,
2013-03-07 23:35:00,32.0,29.1,30.06,SW,225,0.0,0.0,89,0.00,,---,0.29,VWS V14.01,2013-03-08 07:35:00,
2013-03-07 23:40:00,32.0,29.1,30.06,SW,225,0.0,0.0,89,0.00,,---,0.29,VWS V14.01,2013-03-08 07:40:00,
2013-03-07 23:45:00,32.2,29.3,30.03,SSW,202,0.0,0.0,89,0.00,,---,0.29,VWS V14.01,2013-03-08 07:45:00,
2013-03-07 23:50:00,31.8,29.0,30.03,SSW,202,0.0,0.0,89,0.00,,---,0.29,VWS V14.01,2013-03-08 07:50:00,
2013-03-07 23:55:00,32.2,29.6,30.03,SSW,202,2.2,2.2,90,0.00,,---,0.29,VWS V14.01,2013-03-08 07:55:00,